Location: Torrington
(42.0650°N, 104.1810°W)
Time: 18:11:51
(UTC-07:00)

Daily predictions for brighter satellites

Satellite Brightness Start Highest point End
(mag) Time Altitude Azimuth Time Altitude Azimuth Time Altitude Azimuth
Cosmos 2279 Rocket 4.2 17:22:01 10° N 17:28:02 48° ENE 17:34:01 10° SSE
Cosmos 372 Rocket 3.9 17:25:43 10° NNW 17:30:50 73° ENE 17:35:55 10° SSE
IDEFIX/ARIANE 42P 3.0 17:28:18 10° S 17:33:29 72° WSW 17:38:45 10° NNW
Cosmos 540 Rocket 3.5 17:28:56 10° SSW 17:34:07 89° ESE 17:39:19 10° NNE
Cosmos 1515 Rocket 4.2 17:31:05 10° NNW 17:35:31 64° W 17:39:53 10° S
Cosmos 2058 3.0 17:33:49 10° S 17:37:50 55° E 17:41:50 10° NNE
CORIOLIS 4.3 17:34:06 10° SSE 17:39:27 84° WSW 17:44:51 10° NNW
Cosmos 1805 Rocket 4.1 17:38:19 10° SSE 17:42:25 37° E 17:46:33 10° NNE
Lacrosse 5 3.9 17:40:28 10° NW 17:43:19 15° N 17:46:10 10° NNE
Cosmos 1461 3.0 17:40:08 10° SSW 17:44:13 55° ESE 17:48:13 10° NE
Cosmos 1980 4.1 17:38:39 10° SSW 17:44:18 68° WNW 17:49:59 10° NNE
ATLAS 5 CENTAUR R/B 4.2 17:43:13 10° N 17:44:30 11° NNE 17:45:48 10° NNE
SKYMED 2 3.9 17:40:31 10° NNE 17:44:43 46° E 17:48:52 10° S
Cosmos 1900 4.4 17:41:48 10° NNW 17:46:43 59° NE 17:51:39 10° SE
USA 215 3.8 17:42:01 10° E 17:48:03 41° NNE 17:54:04 10° NW
Cosmos 1626 2.9 17:45:47 10° SSE 17:49:04 30° E 17:52:24 10° NNE
BREEZE-M DEB (TANK) 1.5 17:52:25 10° WSW 17:55:18 63° NNW 17:56:48 17° NE
Sich 1 3.7 17:51:22 10° SSE 17:55:21 33° E 17:59:19 10° NNE
Lacrosse 5 rocket 2.5 17:52:19 10° WNW 17:55:56 43° SW 17:59:43 10° SSE
Cosmos 44 4.4 17:50:57 10° SW 17:55:58 46° NW 18:00:47 10° NNE
Meteor 1-11 4.3 17:50:43 10° S 17:56:24 87° E 18:02:13 10° N
Cosmos 2180 Rocket 4.4 17:51:09 10° N 17:57:19 68° E 18:03:30 10° SSE
Cosmos 1356 Rocket 3.8 17:54:06 10° SSE 17:57:49 38° E 18:01:33 10° NNE
Aureole 1 Rocket 4.5 17:54:28 10° SSE 17:59:26 36° E 18:05:44 10° NNE
CZ-2C R/B 4.0 17:55:11 10° SSW 17:59:47 38° W 18:04:17 10° NNW
Cosmos 2219 Rocket 3.7 17:56:12 10° WSW 18:01:17 34° WNW 18:06:23 10° N
Cosmos 1726 3.7 17:59:16 10° NNW 18:02:50 40° W 18:06:23 10° SSW
ALOS 3.4 17:59:53 10° ESE 18:03:22 21° ENE 18:06:52 10° NNE
Coronas F rocket 3.1 18:03:10 10° SE 18:03:53 14° SE 18:03:53 14° SE
Cosmos 1633 Rocket 3.6 18:01:42 10° SSE 18:05:45 37° E 18:09:49 10° NNE
Cosmos 2333 Rocket 3.5 18:03:08 10° SW 18:08:22 38° WNW 18:13:38 10° N
Cosmos 1092 Rocket 4.5 18:04:45 10° SSE 18:10:30 38° E 18:16:17 10° NNE
Cosmos 1455 2.4 18:07:13 10° N 18:10:54 45° E 18:14:35 10° SSE
Abrixas 3.6 18:10:24 10° W 18:13:07 33° NNW 18:14:25 22° NNE
Cosmos 2278 Rocket 3.8 18:10:06 10° NW 18:15:18 38° WSW 18:20:28 10° S
Cosmos 1184 Rocket 2.9 18:16:42 10° S 18:19:57 52° E 18:22:06 19° NNE
CENTAUR R/B 4.4 18:15:24 10° W 18:20:25 23° NNW 18:25:55 10° NNE
Cosmos 1703 3.3 18:16:44 10° S 18:20:37 78° W 18:24:32 10° N
Cosmos 1242 Rocket 4.4 18:18:13 10° NNE 18:19:09 16° NNE 18:19:09 16° NNE
SJ-6B 3.0 18:20:52 10° SSE 18:24:51 54° ENE 18:28:55 10° N
USA 229 DEB 3.8 18:22:58 10° SSW 18:29:40 60° ESE 18:34:38 19° NE
USA 229 3.8 18:23:05 10° SSW 18:29:46 59° ESE 18:34:42 20° NE
Spot 2 Rocket 4.0 18:25:28 10° SE 18:30:01 36° ENE 18:34:36 10° N
Cosmos 1707 Rocket 3.7 18:26:41 10° NNW 18:31:01 75° W 18:35:20 10° S
COSMO-SKYMED 1 3.4 18:28:31 10° N 18:32:45 52° WNW 18:36:57 10° SSW
Iridium 4 Rocket 3.2 18:29:03 10° SSE 18:33:18 47° E 18:37:08 11° NNE
Cosmos 2237 Rocket 4.0 18:34:56 10° WSW 18:39:45 28° NW 18:44:37 10° N
FREGAT/IRIS 2.4 18:37:18 10° SSE 18:40:21 83° ENE 18:43:26 10° N
Cosmos 1666 Rocket 3.8 18:37:34 10° SSW 18:41:53 69° W 18:46:17 10° N
Cosmos 2369 Rocket 3.0 18:38:10 10° N 18:42:51 29° NE 18:42:51 29° NE
SL-19 R/B 4.3 18:37:29 10° SSE 18:43:13 62° ENE 18:48:43 10° N
SL-16 R/B 2.9 18:42:27 10° SW 18:47:57 52° WNW 18:53:29 10° NNE
Resurs 01 Rocket 1.6 18:49:46 28° SE 18:51:55 56° ENE 18:56:17 10° N
Cosmos 1933 Rocket 3.6 18:49:04 10° S 18:53:25 57° E 18:53:47 55° ENE
Cosmos 923 Rocket 3.8 18:49:48 10° S 18:54:59 73° ESE 18:57:25 32° NNE
Lacrosse 4 Rocket 1.4 18:56:12 10° NNW 19:00:15 73° WSW 19:01:45 37° SSE
Cosmos 1680 Rocket 3.4 18:56:15 10° S 19:01:23 64° ESE 19:02:30 51° NE
Tiangong 1 3.3 18:59:08 10° SW 19:00:16 18° SSW 19:00:16 18° SSW
Cosmos 1869 3.8 19:01:49 10° NNW 19:05:49 61° W 19:09:47 10° S
Cosmos 1655 Rocket 4.1 19:01:32 10° SSE 19:07:40 52° E 19:09:16 42° NE
CZ-4C R/B 4.0 19:03:47 10° NNW 19:08:40 23° NNE 19:08:40 23° NNE
Cosmos 1627 Rocket 4.3 19:03:39 10° S 19:09:47 71° E 19:15:53 10° NNE
FENGYUN 3A 3.5 19:06:48 10° SSE 19:12:10 88° W 19:17:36 10° NNW
Cosmos 1470 Rocket 3.6 19:10:36 10° SSW 19:14:56 75° W 19:15:29 64° NNW
NOSS 3-1 (C) 3.7 19:15:42 10° SSW 19:20:20 47° SSE 19:20:20 47° SSE
Cosmos 1943 3.9 19:20:10 10° S 19:23:49 38° SSE 19:23:49 38° SSE
Lacrosse 5 3.8 19:24:16 10° NNW 19:26:32 18° N 19:26:32 18° N
USA 215 3.3 19:28:15 41° SSE 19:30:45 75° SW 19:37:20 10° NW
ATLAS 5 CENTAUR R/B 3.6 19:25:46 10° NNW 19:28:58 26° N 19:28:58 26° N
ATLAS 3B R/B 4.3 19:29:36 10° NNW 19:33:09 18° NNE 19:33:09 18° NNE
Cosmos 2026 Rocket 3.9 19:30:34 10° S 19:36:46 81° W 19:40:53 22° N
Cosmos 2112 Rocket 4.2 19:32:45 10° SSW 19:37:38 69° W 19:37:38 69° W
ALOS 3.4 19:36:07 10° S 19:40:31 41° W 19:44:57 10° NNW
Cosmos 1943 Rocket 4.1 19:42:49 10° NNW 19:44:17 18° N 19:44:17 18° N
Cosmos 2369 Rocket 3.9 20:21:54 10° NW 20:24:42 27° NW 20:24:42 27° NW
